Powrót do katalogu

SL-8 DEB

AktywnyLEO
NORAD 18681·DEBRIS·🇷🇺 Russia

Wystrzelony Jun 9, 1987 z Plesetsk Cosmodrome

Loading…

Następne Przeloty (najbliższe 24 godziny)

TLE

ŚwieżeSource: Space-Track

Epoka: Sep 14, 2026, 11:14 UTC

1 18681U 87049D   26257.46855374  .00000810  00000-0  21613-3 0  9991
2 18681  74.0267  69.2600 0016105 265.0071 124.9022 14.49995850 58512

Śledź SL-8 DEB w czasie rzeczywistym z AllMySat

Download on the App Store